Starlink 5012

operational
NORAD ID: 53918 Int'l Des: 2022-119 Owner: SPXS Country: US Constellation: starlink
LEOCIRCULAR

Über Starlink 5012

Beschreibung wird geladen...

Live-Position

3D-Globus wird geladen...

Nächste Überflüge

Höhenverlauf

Altitude vs Time

uPlot chart will show altitude changes over time

Zweizeiliger Elementsatz

1 53918U 22119AJ 25260.58750601 -.00000314 00000-0 -16498-5 0 9991
2 53918 53.2194 11.1116 0000964 111.0716 249.0379 15.08848991165693
Epoch: 17. Sept. 2025 • Age: 16 hours

Aktueller Status

Höhe 544.2 km
Geschwindigkeit 7.60 km/s
Subsatellitenpunkt 45.91°N, 33.36°W
Startdatum 24. Sept. 2022
Alter 2.9 years
Typ internet

Technische Details

Klassifizierung Payload
Masse 305.00 kg
Trockenmasse 290.00 kg
Gesamtmasse 305.00 kg
Länge 0.20 m
Durchmesser 2.80 m
Spannweite 9.00 m
Form Box + pan
Hersteller SPXS
Bus-Typ Starlink
Phasenstatus In Orbit
Besitzer/Staat SPXS/US

Große Konstellationen

Loading constellations...